#timestamp,LO_Frequency,Hit,StdDev 
1635271215.6,286046988.7,P
1635271235.4,286046989.6,P
1635271255.3,286046989.3,P
1635271275.1,286046988.7,Y
1635271295.9,286046998.5,P
1635271315.7,286047000.4,N
1635271335.5,286046998.5,N
1635271355.4,286046998.4,N
1635271375.2,286046998.4,N
1635271395.1,286046998.5,N
1635271396.0,286046998.5,N
1635271415.8,286047001.2,N
1635271435.6,286047001.1,N
1635271455.5,286047001.1,N
1635271475.3,286046998.6,N
1635271495.1,286046998.8,N
1635271515.9,286046998.7,N
1635271535.7,286046996.5,N
1635271555.6,286046999.0,N
1635271575.4,286046999.6,N
1635271595.2,286046998.9,N
1635271615.1,286046996.8,N
1635271616.0,286046996.8,N
1635271635.8,286046996.7,N
1635271655.6,286046999.3,N
1635271675.5,286046997.1,N
1635271695.3,286046997.6,N
1635271715.2,286046997.7,N
1635271735.9,286046997.5,N
1635271755.7,286046995.4,N
1635271775.6,286046995.3,N
1635271795.4,286046997.6,N
1635271815.2,286046997.8,N
1635271835.1,286046997.6,N
1635271836.0,286046997.6,N
1635271855.8,286046997.1,N
1635271875.7,286046997.2,N
1635271895.5,286046997.3,N
1635271915.3,286046997.4,N
1635271935.2,286046997.0,N
1635271955.0,286046997.1,N
1635271955.9,286046997.1,N
1635271975.8,286046997.3,N
1635271995.6,286046997.1,N
1635272015.4,286046996.7,Y
1635272035.3,286047000.9,P
1635272055.1,286047001.2,N
1635272075.9,286047000.0,N
1635272095.7,286047001.0,N
1635272115.5,286047000.1,N
1635272135.4,286046999.8,N
1635272155.2,286047002.1,N
1635272175.0,286047002.3,N
1635272175.9,286047002.3,N
1635272195.8,286047000.0,N
1635272215.6,286047001.2,N
1635272235.5,286046998.9,N
1635272255.3,286047000.7,N
1635272275.1,286047000.0,N
1635272295.9,286047000.7,N
1635272315.7,286047002.4,N
1635272335.5,286047002.8,N
1635272355.4,286047001.9,N
1635272375.2,286047004.3,Y
1635272395.1,286047002.2,P
1635272396.0,286047002.2,P
1635272415.8,286047000.8,N
1635272435.6,286046998.6,N
1635272455.5,286046998.8,N
1635272475.3,286046998.9,N
1635272495.1,286046998.8,N
1635272515.9,286046997.0,N
1635272535.7,286046999.3,N
1635272555.6,286046998.9,N
1635272575.4,286046998.3,N
1635272595.2,286046999.9,N
1635272615.1,286047002.7,N
1635272616.0,286047002.7,N
1635272635.8,286046999.8,N
1635272655.6,286046998.1,N
1635272675.5,286047000.7,N
1635272695.3,286047001.0,N
1635272715.2,286047000.5,N
1635272735.9,286047000.5,N
1635272755.7,286047002.4,N
1635272775.6,286046999.7,N
1635272795.4,286047000.1,N
1635272815.2,286047002.6,N
1635272835.1,286047004.4,N
1635272836.0,286047004.4,N
1635272855.8,286047004.0,N
1635272875.7,286047001.7,N
1635272895.5,286047001.7,N
1635272915.3,286047004.3,N
1635272935.2,286047004.0,N
1635272955.0,286047004.1,N
1635272955.9,286047004.1,N
1635272975.7,286047003.6,N
1635272995.6,286047002.9,N
1635273015.4,286047003.9,N
1635273035.3,286047002.2,N
1635273055.1,286047001.3,N
1635273056.0,286047001.3,N
1635273075.8,286047004.4,N
1635273095.7,286047001.4,N
1635273115.5,286047001.7,N
1635273135.3,286047003.9,N
1635273155.2,286047002.7,N
1635273175.0,286047002.1,N
1635273175.9,286047002.1,N
1635273195.8,286047004.3,N
1635273215.6,286047001.3,N
1635273235.4,286047005.9,Y
1635273255.3,286047002.3,P
1635273275.1,286047004.3,P
1635273295.9,286047004.4,P
1635273315.7,286047001.6,N
1635273335.5,286047001.3,N
1635273355.4,286047003.1,N
1635273375.2,286047004.0,Y
1635273395.0,286047001.0,P
1635273395.9,286047001.0,N
1635273415.8,286046996.8,P
1635273435.6,286046997.8,N
1635273455.5,286046997.7,N
1635273475.3,286046997.2,N
1635273495.1,286046998.5,N
1635273515.9,286047000.7,N
1635273535.7,286046998.2,N
1635273555.5,286047001.2,N
1635273575.4,286046998.1,N
1635273595.2,286047001.2,N
1635273615.1,286046996.5,N
1635273616.0,286046996.5,N
1635273635.8,286046999.0,N
1635273655.6,286046998.4,N
1635273675.5,286047001.1,N
1635273695.3,286046999.5,N
1635273715.2,286046996.5,N
1635273735.9,286046998.5,N
1635273755.7,286046998.2,N
1635273775.6,286046996.8,N
1635273795.4,286046997.7,N
1635273815.2,286046997.0,N
1635273835.1,286046999.6,N
1635273836.0,286046999.6,N
1635273855.8,286046998.2,N
1635273875.7,286047001.0,N
1635273895.5,286046996.8,N
1635273915.3,286046996.5,N
1635273935.2,286046998.4,N
1635273955.0,286046998.7,N
1635273955.9,286046998.7,N
1635273975.8,286046999.9,N
1635273995.6,286047002.2,N
1635274015.4,286047002.4,N
1635274035.3,286047002.6,N
1635274055.1,286047001.9,N
1635274075.8,286047003.2,N
1635274095.7,286047003.9,N
1635274115.5,286047004.3,N
1635274135.4,286047003.8,N
1635274155.2,286047003.9,N
1635274175.0,286047003.1,N
1635274175.9,286047003.1,N
1635274195.8,286047003.4,N
1635274215.6,286047003.1,N
1635274235.4,286047005.4,N
1635274255.3,286047005.8,N
1635274275.1,286047005.5,N
1635274295.9,286047004.8,N
1635274315.7,286047001.9,N
1635274335.5,286047000.8,N
1635274355.4,286047000.4,N
1635274375.2,286046999.7,N
1635274395.0,286047002.5,N
1635274396.0,286047002.5,N
1635274415.8,286047000.1,N
1635274435.6,286047000.1,N
1635274455.5,286047002.2,N
1635274475.3,286047001.4,N
1635274495.1,286047004.1,N
1635274515.9,286047003.9,N
1635274535.7,286047002.9,N
1635274555.6,286047003.1,N
1635274575.4,286047005.1,Y
1635274595.2,286047001.5,P
1635274615.1,286046999.7,N
1635274616.0,286046999.7,N
1635274635.8,286046999.8,N
1635274655.6,286047002.5,N
1635274675.5,286047002.6,N
1635274695.3,286047002.7,N
1635274715.2,286047002.7,N
1635274735.9,286047002.1,N
1635274755.7,286047002.1,N
1635274775.6,286046999.9,N
1635274795.4,286047000.6,N
